Regional Weather Roundup
Issued by NWS

Home | Current Version | Previous Version | Text Only | Print | Product List | Glossary On
Versions: 1 2 3 4 5 6 7 8 9 10 11 12 13 14 15 16 17 18 19 20 21 22 23 24 25 26 27 28 29 30 31 32 33 34 35 36 37 38 39 40 41 42 43 44 45 46 47 48 49 50
000
ASMX46 KSGX 220710
RWRMX

MEXICAN WEATHER ROUNDUP
NATIONAL WEATHER SERVICE SAN DIEGO CA
1100 PM PST SUN DEC 21 2014

BAJA CALIFORNIA

CITY           SKY/WX    TMP DP  RH WIND       PRES   REMARKS
ENSENADA NW      N/A     59  32  36 CALM      30.03F
LA PAZ           N/A    N/A N/A N/A MISG        N/A
TIJUANA        PTCLDY    55  52  88 CALM      30.08S

NORTHWESTERN MEXICO

CITY           SKY/WX    TMP DP  RH WIND       PRES   REMARKS

NORTHEASTERN MEXICO

CITY           SKY/WX    TMP DP  RH WIND       PRES   REMARKS
MONTERREY      FOG       54  54 100 CALM      29.88F VSB 0
TORREON        CLEAR     48  34  57 CALM      30.00F
VICTORIA       PTCLDY    55  55 100 N2        29.91F

WESTERN MEXICO

CITY           SKY/WX    TMP DP  RH WIND       PRES   REMARKS
GUADALAJARA    CLEAR     48  41  76 CALM      30.15F
MAZATLAN       CLEAR     55  52  88 NE6       29.94S
ZACATECAS      CLEAR     45  18  33 S12       30.20S

CENTRAL MEXICO

CITY           SKY/WX    TMP DP  RH WIND       PRES   REMARKS
LEON           PTCLDY    48  36  61 E5        30.27F
MEXICO CITY    MOCLDY    59  41  51 SE6       30.25F
QUERETARO      PTCLDY    52  37  58 CALM      30.24F
S. LUIS POTOSI PTCLDY    54  25  32 CALM      30.13F
TOLUCA         MOCLDY    45  36  70 CALM      30.32F
VERACRUZ       MOCLDY    68  66  94 N2        29.92F

SOUTHERN MEXICO

CITY           SKY/WX    TMP DP  RH WIND       PRES   REMARKS
ACAPULCO       CLOUDY    75  72  88 NW2       29.88F
TAPACHULA      PTCLDY    77  73  88 CALM      29.91F
VILLAHERMOSA   CLEAR     70  68  94 E5        29.92F

YUCATAN PENINSULA

CITY           SKY/WX    TMP DP  RH WIND       PRES   REMARKS
CANCUN         CLEAR     73  72  94 SE5       29.95F
COZUMEL        PTCLDY    66  66 100 CALM      29.95F
MERIDA         MOCLDY    73  72  94 E5        29.92F

$$



USA.gov is the U.S. government's official web portal to all federal, state and local government web resources and services.